Wind_Speed
55 55 54 53 52 50 48 47 46 44 43 42 41 42 45 48 47 45 45 47 48 50 50 50 50 45 36 32 31 36 39 40 42 45 48 44 38 37 38 38 37 35 33 30 29 28 27 27 26 24 22 21 21 20 20 20 18 18 18 16 17 15 13 13 10 10 11 8 12 14 12 10 11 12 10 8 8 6 6 6 7 7 6 6 6 5 5 6
55 56 56 55 54 52 50 49 47 46 44 43 43 42 43 46 48 46 44 45 47 48 49 49 50 49 41 34 30 31 37 39 41 46 46 41 37 38 38 39 38 37 35 32 30 28 27 27 27 25 23 22 21 21 21 20 19 20 17 17 19 13 13 17 13 11 12 12 14 15 13 11 12 13 12 11 9 8 7 7 7 8 7 6 5 5 5 5
52 55 57 57 56 54 52 51 49 48 46 45 44 43 42 43 46 47 45 44 45 47 49 48 49 51 47 39 31 30 35 37 43 48 43 38 39 40 37 38 39 38 36 33 31 30 29 28 28 27 24 23 22 22 22 22 22 20 18 20 18 14 16 21 21 19 18 16 17 16 14 13 14 15 13 12 11 10 9 8 8 8 7 6 5 6 5 5
49 52 56 57 57 56 55 53 52 50 48 47 46 44 42 41 43 45 45 44 45 47 48 47 47 50 49 43 35 32 32 35 45 46 39 38 40 41 40 39 39 39 38 35 34 33 32 30 30 29 26 24 23 24 23 23 24 19 23 24 15 17 18 19 25 25 20 18 18 17 16 15 15 16 14 14 13 10 9 9 9 8 8 7 5 6 6 5
47 49 52 56 58 58 57 55 54 52 50 49 47 46 43 41 41 42 44 44 44 46 48 46 45 49 51 45 39 36 30 30 42 43 37 37 41 42 41 40 39 39 38 36 35 35 35 33 32 30 28 26 22 25 25 23 26 21 26 27 19 21 17 18 27 24 20 20 18 18 17 18 18 17 16 16 14 10 10 12 12 11 11 8 6 6 6 6
47 47 49 52 56 58 58 57 56 54 52 50 49 47 44 42 41 41 42 44 44 46 48 47 44 46 51 48 43 41 34 30 33 37 39 39 39 42 42 40 38 38 38 37 35 34 35 34 35 32 30 28 23 26 26 23 29 27 26 25 24 28 22 23 29 22 20 21 19 20 20 21 20 18 19 19 17 15 16 16 15 15 13 11 9 7 7 7
45 46 47 49 52 56 58 58 57 56 54 52 51 49 46 43 41 41 41 42 44 45 47 48 45 44 49 51 49 47 43 40 31 24 31 40 40 40 42 41 40 39 39 39 36 34 35 35 37 35 32 30 26 27 25 23 29 29 26 21 24 31 28 28 29 23 23 22 22 23 22 22 21 21 22 22 19 18 19 17 17 17 15 14 12 10 9 8
44 44 46 47 49 53 56 58 57 58 56 54 53 51 48 45 43 42 41 41 43 44 46 49 48 44 45 51 53 51 50 50 42 23 17 31 40 40 42 44 43 42 40 40 39 35 33 34 37 37 35 33 29 27 24 25 29 30 29 23 26 32 29 29 29 25 25 23 24 24 24 24 24 25 26 24 20 20 22 20 20 19 18 16 14 13 12 11
43 44 44 46 47 50 53 56 57 58 58 56 55 52 50 47 44 42 41 41 41 43 45 48 50 46 43 48 50 53 57 55 50 36 20 20 32 40 42 44 44 44 42 41 39 36 33 33 35 35 35 33 31 28 25 28 29 29 31 27 29 33 30 29 28 27 27 25 25 25 25 25 26 28 28 27 22 23 25 22 21 21 20 18 17 16 15 14
42 43 44 45 46 47 50 53 55 58 59 58 57 54 51 49 45 42 41 41 41 42 44 48 51 48 44 46 48 54 62 59 53 47 33 20 23 34 41 43 44 44 44 42 41 40 36 33 31 31 34 35 34 31 27 30 28 25 28 27 30 34 32 31 29 28 28 27 27 26 26 26 29 31 30 28 25 26 27 25 23 23 22 21 20 19 19 18
43 42 43 44 45 46 47 50 53 55 59 60 58 55 52 49 46 43 42 41 41 42 44 47 50 51 48 47 50 57 63 60 54 49 43 32 22 26 35 40 44 44 44 43 42 41 38 35 33 31 33 35 36 34 30 32 31 29 29 28 31 33 33 33 31 31 30 28 28 28 28 28 30 33 31 28 28 29 27 26 26 26 25 24 23 22 22 21
43 42 42 43 44 44 45 47 50 53 58 61 59 56 53 50 48 45 42 41 40 40 43 45 48 51 50 50 52 57 61 61 56 46 43 43 32 25 29 35 39 43 43 43 42 41 39 38 35 32 33 35 35 34 34 36 34 33 32 31 31 31 34 35 32 32 31 29 30 28 29 31 34 36 32 29 30 30 27 27 28 28 27 27 26 26 26 25
43 43 42 43 44 43 43 45 48 50 56 61 60 57 55 52 49 46 43 41 39 39 40 43 46 46 47 51 52 53 59 64 58 45 40 46 42 32 30 30 32 38 42 41 41 40 39 39 37 34 35 35 34 34 34 34 35 35 34 31 27 27 33 35 34 34 33 31 31 29 28 30 30 28 27 28 30 30 31 30 29 30 29 29 29 29 29 28
42 43 43 44 44 43 43 43 46 48 53 59 61 59 57 54 51 49 45 42 39 38 39 41 43 44 45 49 50 52 57 62 59 49 41 43 45 40 33 30 32 36 39 41 41 41 40 38 37 37 37 36 35 36 35 32 33 34 31 29 27 25 26 27 31 35 34 33 32 30 30 32 28 21 17 23 30 30 31 32 30 30 30 29 30 31 31 30
42 43 43 43 44 43 43 43 44 46 50 57 61 61 59 55 52 50 46 43 40 38 39 41 42 43 46 48 48 52 55 59 60 53 44 40 41 42 37 33 36 36 36 40 43 42 41 39 40 39 38 39 38 36 34 33 31 29 27 25 28 29 23 20 26 31 30 32 33 31 29 31 34 30 23 25 33 31 28 29 29 31 30 29 30 31 33 32
41 42 42 42 43 43 44 44 43 45 48 53 60 62 60 57 53 50 47 43 41 40 41 43 44 44 47 48 48 52 53 56 58 52 47 41 37 41 41 35 36 37 37 40 42 43 42 41 41 40 39 40 41 38 32 28 26 29 30 25 24 27 25 22 24 28 27 25 30 34 30 26 28 29 27 30 35 35 31 31 30 31 30 30 31 31 34 34
40 42 41 41 43 44 43 43 43 44 45 51 58 62 61 58 54 50 48 45 44 44 43 43 42 43 47 47 47 52 52 54 56 50 47 44 37 39 42 37 37 42 40 39 41 43 44 43 42 40 39 38 37 35 29 26 27 28 29 27 23 24 26 24 21 23 27 27 31 36 37 35 31 28 29 31 34 34 33 32 31 31 31 31 32 32 33 34
39 41 41 41 43 44 43 43 44 43 44 48 55 62 62 59 55 51 50 48 46 45 44 46 43 42 47 48 49 52 52 52 53 50 45 44 41 37 38 36 37 44 43 41 44 45 45 44 44 41 39 39 37 36 36 34 32 28 26 25 22 21 25 26 20 20 25 28 32 34 35 39 39 36 34 32 35 38 36 33 33 33 32 31 32 33 32 32
37 40 41 41 43 44 44 44 43 43 44 46 52 61 63 60 56 54 52 51 51 50 49 52 52 49 48 50 50 49 50 52 51 50 45 44 44 39 37 35 35 41 45 45 46 46 44 42 41 41 42 45 44 44 44 36 26 24 25 24 22 20 21 22 21 22 23 25 29 32 33 33 37 39 37 34 35 39 40 36 35 35 34 33 32 33 33 31
37 38 40 41 42 43 44 44 43 44 45 46 50 59 65 62 56 54 56 55 56 56 52 53 55 53 50 51 52 49 48 51 51 51 47 44 46 43 38 33 31 35 40 44 46 45 43 42 43 46 49 50 47 44 41 32 22 22 23 23 23 21 21 20 22 27 27 26 25 27 30 29 33 40 40 38 37 39 42 40 36 34 34 35 34 34 33 32
36 37 39 40 41 43 44 44 44 44 46 47 50 60 69 68 60 56 58 57 54 56 55 53 52 52 52 53 53 50 45 45 48 50 49 45 45 48 44 37 33 31 31 34 39 42 42 42 45 49 49 45 41 40 36 32 25 21 20 20 21 23 22 19 21 26 27 27 25 22 25 26 30 38 39 39 40 40 42 42 37 34 34 36 35 34 33 31
35 36 37 38 41 43 44 44 44 44 47 49 51 60 68 70 65 58 57 56 54 56 58 55 53 51 53 53 51 48 44 43 44 47 51 47 45 50 51 49 48 43 35 28 27 30 34 39 44 46 45 38 35 38 37 35 28 20 20 21 20 22 21 19 21 24 25 27 26 21 24 27 30 38 41 40 42 42 42 42 40 36 35 37 35 33 33 32
34 36 36 37 40 42 44 44 44 45 49 52 55 59 63 67 66 58 53 52 51 56 57 56 58 55 53 54 51 49 47 47 44 43 49 49 46 48 49 49 52 51 47 42 33 25 25 35 42 39 39 35 31 33 34 34 29 21 21 22 22 22 20 21 21 22 25 26 24 22 27 33 36 41 46 44 43 44 42 41 40 39 38 38 36 34 34 34
34 35 35 37 39 41 44 43 44 47 50 54 56 58 60 62 64 58 52 48 48 54 57 55 56 55 54 54 53 51 48 48 49 46 48 52 48 46 47 47 46 46 47 49 47 38 30 30 31 29 33 34 27 27 30 29 27 23 23 25 25 24 21 20 17 15 18 21 23 24 28 36 41 44 50 50 47 48 47 45 42 40 39 38 38 37 36 35
33 34 35 37 39 41 42 44 47 49 50 53 54 57 58 59 62 57 50 47 47 50 54 56 54 52 54 53 52 53 48 45 49 51 49 51 50 46 46 46 45 46 47 46 44 44 45 41 32 24 26 30 26 27 30 28 25 23 25 27 25 23 20 18 16 14 15 18 21 18 17 26 29 29 37 39 40 42 40 44 46 42 41 41 40 39 38 37
33 34 36 37 39 41 42 47 50 48 50 52 52 54 56 56 59 57 50 45 46 48 51 57 57 51 51 52 51 52 49 43 45 50 49 47 47 46 45 44 45 46 47 46 38 38 46 49 45 36 27 26 24 26 31 28 24 23 23 25 25 25 22 19 17 15 16 17 16 12 12 19 22 22 27 25 26 29 25 33 43 41 40 40 40 40 38 39
34 35 36 37 39 42 46 49 48 48 52 52 52 55 56 55 54 56 51 31 32 47 50 53 58 53 50 52 53 52 48 45 42 43 48 46 43 44 45 44 43 43 43 40 34 35 41 42 45 46 40 33 25 23 30 32 26 22 22 22 23 25 25 23 20 18 20 19 18 20 18 22 28 32 34 30 30 30 23 29 41 42 39 36 36 38 36 36
35 35 36 38 40 44 47 47 46 50 52 50 53 54 55 55 52 56 47 15 11 39 48 51 57 55 51 50 52 55 52 49 44 39 42 46 45 44 45 45 43 42 42 40 37 38 41 40 42 46 43 41 35 25 26 33 32 27 26 24 21 22 22 24 24 22 23 20 21 26 20 19 27 28 27 29 37 42 38 37 42 45 42 36 34 34 33 33
36 37 38 38 40 43 46 46 47 49 49 50 52 53 55 53 50 53 41 12 10 32 44 49 54 54 54 52 50 55 55 48 43 40 38 40 45 46 44 44 44 43 42 41 40 39 38 36 37 40 40 40 40 34 25 25 26 26 26 25 25 24 23 24 24 24 23 19 23 27 21 16 23 22 18 19 30 42 44 36 32 38 39 35 31 31 30 30
36 38 39 39 42 44 46 49 48 46 49 50 50 54 55 50 51 43 22 12 18 29 40 48 53 55 55 55 52 52 54 47 41 42 41 38 42 46 43 41 43 42 39 38 37 39 39 33 30 35 36 32 33 39 38 31 27 27 26 26 24 23 25 25 25 27 20 15 29 37 28 19 19 21 17 18 23 27 27 21 19 28 32 28 25 24 24 24
37 39 40 42 44 44 48 51 49 47 49 49 49 55 54 50 53 33 7 16 25 25 41 50 55 57 54 56 55 50 50 47 42 42 42 42 43 46 45 43 42 37 34 36 35 35 36 30 28 32 32 29 29 37 45 45 42 37 31 28 20 12 18 19 22 27 14 9 29 42 34 25 22 21 13 12 17 14 16 21 22 27 30 26 22 19 20 21
37 39 41 43 43 44 48 49 49 49 49 50 50 54 54 45 41 26 11 22 23 23 44 53 55 60 56 55 53 51 52 48 45 42 41 46 49 51 52 49 48 37 29 36 35 32 35 32 30 29 30 33 34 36 38 38 39 36 31 30 17 5 8 10 10 13 9 12 24 27 24 24 29 37 29 22 27 28 33 38 35 33 32 29 23 18 19 20
37 39 41 43 43 45 48 46 48 51 48 50 50 54 56 35 22 27 27 25 19 25 44 51 56 61 59 56 49 49 52 50 50 46 41 46 50 54 53 50 53 43 32 39 39 33 32 30 31 30 30 35 37 37 36 33 35 36 36 35 21 6 4 6 6 4 6 19 26 20 16 15 22 40 42 38 40 38 39 36 27 23 21 19 16 15 17 17
37 40 42 43 44 44 46 46 50 51 47 50 53 55 51 24 14 34 39 28 23 29 43 50 56 59 60 60 53 50 49 46 52 50 44 46 46 48 48 44 50 46 36 38 39 35 27 19 29 35 32 35 37 37 37 36 36 36 38 37 29 20 10 3 3 2 1 10 20 21 13 9 17 31 30 25 24 20 18 16 12 12 12 11 13 16 16 13
37 41 42 43 44 45 47 48 50 51 47 50 55 55 45 22 19 38 41 33 30 34 42 48 52 54 54 56 53 53 50 44 48 50 44 45 45 45 45 42 45 44 35 32 30 31 26 16 25 36 34 31 32 32 35 34 31 30 34 34 32 35 26 8 6 7 5 6 7 14 12 11 24 35 29 21 18 17 20 22 24 26 22 19 19 17 14 9
39 42 43 44 46 46 48 49 50 51 50 51 52 52 50 35 27 36 42 38 36 39 44 44 47 50 49 48 47 51 51 42 43 47 42 43 44 45 46 44 45 42 36 34 30 28 24 14 19 30 32 29 26 27 32 31 26 25 30 35 35 38 32 17 11 13 11 7 6 10 12 15 26 34 35 33 30 31 34 35 33 30 25 22 20 15 12 8
42 44 45 45 46 46 48 50 50 51 51 54 52 48 53 48 31 30 42 42 36 43 48 42 42 46 44 43 44 48 51 41 38 42 40 39 39 41 45 42 42 44 41 38 35 31 24 15 16 25 28 29 24 20 25 30 27 23 26 33 32 26 26 21 10 6 6 5 5 10 14 16 19 19 19 20 23 25 25 23 19 19 20 20 17 15 14 13
43 44 45 46 46 46 48 49 49 49 50 53 53 45 48 54 42 29 37 43 39 46 52 42 40 48 46 43 44 50 53 44 39 40 38 34 30 33 42 40 38 42 40 34 31 31 26 14 14 21 21 25 26 21 23 30 31 26 23 27 25 15 15 21 13 3 4 5 4 8 13 16 20 21 12 5 8 12 13 15 16 18 20 21 18 18 19 20
43 44 45 45 45 45 46 48 48 48 48 51 53 48 44 50 52 39 34 42 42 46 52 43 40 49 51 50 53 54 56 52 47 45 41 37 34 35 41 41 38 39 36 31 27 28 27 16 11 18 19 21 28 28 28 31 31 31 26 23 24 18 12 17 19 10 5 4 4 6 9 12 23 33 27 20 21 22 20 21 25 25 24 23 22 24 24 23
45 45 44 44 44 44 45 47 47 45 48 50 50 52 48 43 45 43 38 43 45 44 49 47 42 48 53 56 58 54 55 58 53 44 38 37 39 40 41 41 40 39 36 32 26 24 27 22 13 16 21 23 30 33 33 33 32 32 31 26 26 27 18 13 19 20 12 5 3 5 6 15 30 32 23 23 27 27 22 22 28 29 27 26 25 25 25 23
45 43 43 43 43 44 44 46 46 45 49 53 47 46 52 47 38 40 42 45 46 44 47 47 45 50 53 55 55 49 47 49 45 37 32 34 37 36 39 46 47 43 38 34 31 25 25 25 17 19 26 28 32 35 33 31 31 30 34 35 33 34 28 13 10 21 24 16 10 7 5 23 44 35 19 18 19 20 20 22 30 32 29 29 28 26 25 22
43 42 41 41 41 44 44 44 46 47 49 56 52 41 44 49 43 40 43 45 46 45 46 45 45 48 51 51 54 51 44 41 40 37 34 38 39 31 34 43 46 45 41 37 36 31 24 23 19 19 25 27 27 30 30 28 28 28 31 34 32 32 32 22 10 14 25 25 21 13 7 28 50 41 29 28 25 26 27 26 33 35 31 31 30 29 27 24
42 41 37 37 41 43 44 45 48 49 47 53 57 46 38 43 45 44 44 45 46 44 45 45 43 45 47 45 44 44 41 37 39 41 36 33 33 30 31 36 37 41 42 38 37 35 26 23 21 16 17 23 23 25 28 27 26 29 31 33 32 31 35 34 22 13 14 21 22 12 7 30 47 38 32 33 29 32 32 30 34 33 31 32 30 29 29 26
39 37 33 35 40 42 45 49 51 51 47 48 52 49 40 38 43 48 48 48 47 44 43 45 43 44 47 45 39 38 38 34 34 38 34 27 30 33 33 34 34 37 41 38 37 37 29 23 24 18 11 13 16 16 20 25 28 32 35 35 35 34 36 35 32 23 13 15 22 14 10 29 37 26 25 28 26 28 30 32 35 32 30 32 30 30 31 29
37 33 31 34 39 43 48 51 52 51 49 47 46 47 43 38 40 47 49 49 49 46 44 45 44 44 46 46 41 38 39 35 32 35 33 28 29 31 29 30 32 34 39 37 35 36 30 23 25 22 13 10 12 12 19 27 30 33 34 35 36 37 35 33 33 30 18 16 24 19 15 30 37 29 30 33 31 32 33 33 35 36 35 34 33 33 33 32
38 36 38 39 40 45 48 49 50 52 52 50 44 43 44 43 42 44 46 48 48 47 46 45 44 42 41 42 39 36 39 38 35 37 37 31 30 30 28 28 29 34 39 37 34 34 30 25 25 24 20 16 13 14 21 26 25 27 32 35 36 35 35 34 31 30 27 23 25 26 24 32 41 40 38 39 38 39 39 36 34 35 36 36 38 39 37 37
39 40 45 46 44 47 50 46 47 51 54 53 47 41 42 46 46 44 45 47 48 48 46 42 42 41 39 41 40 38 39 38 36 38 36 32 32 32 30 28 28 33 38 36 34 33 30 28 28 27 26 23 16 11 16 20 20 22 27 31 34 33 33 34 32 34 34 25 20 29 31 32 42 46 41 39 40 41 42 41 39 36 35 38 43 46 44 43
41 42 47 49 46 49 53 49 47 49 51 52 48 43 43 46 47 46 46 46 46 47 44 38 38 40 40 41 40 39 38 35 34 36 34 33 35 34 32 32 30 32 35 34 34 33 32 32 33 33 33 32 26 16 14 16 17 18 19 20 24 28 29 32 33 35 37 30 27 33 34 33 42 47 43 41 41 42 42 44 44 44 44 46 49 50 47 46
43 43 47 49 47 49 54 53 50 49 50 50 47 45 46 47 48 49 48 47 45 44 42 39 37 38 38 39 39 39 39 38 36 37 36 36 37 36 36 34 33 34 33 30 31 32 31 31 32 32 31 34 36 29 23 21 20 22 24 21 17 19 22 25 27 29 32 33 34 35 36 39 44 46 47 45 43 44 46 46 46 47 49 50 52 53 52 50
43 45 49 49 45 46 52 53 51 49 48 48 46 45 47 49 50 51 49 49 47 45 43 41 39 37 36 36 38 38 38 40 40 40 38 36 35 38 38 34 34 35 29 24 27 30 28 24 24 23 22 25 31 30 26 25 22 23 29 28 22 18 20 24 29 31 32 35 36 34 36 41 43 44 48 49 46 46 48 47 48 49 49 51 52 54 56 56
41 45 50 50 45 46 50 50 49 48 46 45 44 44 46 48 51 51 48 46 47 47 46 42 39 37 35 33 34 33 31 33 37 39 40 38 35 35 37 35 33 32 29 25 25 27 26 21 16 16 15 18 24 24 23 25 24 24 28 30 29 29 31 36 40 41 42 40 36 31 35 42 44 43 45 49 50 50 50 51 52 52 52 52 53 54 54 55
39 45 52 51 45 45 49 49 48 47 46 46 45 44 45 48 49 50 47 43 42 43 44 42 37 35 35 33 32 30 26 26 29 31 34 34 32 30 32 35 36 33 33 34 31 29 30 27 23 18 15 20 28 26 23 23 19 20 28 35 38 40 42 44 45 45 45 43 38 36 42 47 45 41 43 48 52 54 53 54 53 53 52 52 53 54 53 52
Wind_Direction
227 226 226 226 227 227 228 229 231 233 234 233 232 232 233 233 233 230 227 225 223 222 221 223 223 222 223 225 226 227 227 231 234 234 233 228 226 226 227 230 231 232 231 231 233 234 233 234 235 235 235 237 236 237 236 234 233 232 230 231 239 237 242 245 235 233 225 240 261 250 244 238 240 244 238 239 232 227 240 244 246 243 238 244 249 244 231 222
228 226 226 225 226 226 226 227 228 230 231 232 232 232 232 232 232 231 229 225 223 221 220 221 223 223 223 224 227 229 228 229 233 235 234 229 225 224 225 229 231 233 232 230 232 233 234 234 235 236 236 239 239 238 238 237 234 230 229 235 239 234 238 237 225 227 226 233 249 248 245 230 231 241 237 239 234 228 238 244 251 254 251 252 259 261 254 246
228 227 226 225 224 224 225 225 226 227 228 231 232 231 231 230 231 231 230 226 222 220 219 220 222 223 222 223 226 229 229 233 236 235 233 229 227 224 224 228 230 232 233 230 230 232 233 234 234 234 235 238 240 238 236 236 234 229 228 234 240 237 236 237 232 236 241 241 245 247 245 233 234 242 239 239 236 231 233 237 252 264 264 253 254 263 263 258
230 228 226 225 224 223 223 223 224 225 226 228 231 231 229 228 228 229 230 228 222 219 218 219 222 223 222 222 225 225 224 236 241 236 231 229 228 226 223 226 229 230 231 231 229 229 230 231 232 232 233 234 236 238 234 234 233 231 232 230 237 247 242 245 243 243 249 248 246 245 243 238 237 240 240 238 237 240 244 242 244 255 262 255 250 258 263 263
234 230 228 226 224 223 222 222 223 223 223 225 228 229 228 226 226 227 228 228 224 219 218 219 220 222 222 222 224 223 222 237 245 239 231 227 226 226 224 225 228 228 229 231 230 229 229 229 231 230 231 230 233 237 232 234 233 229 236 231 232 246 243 248 248 246 249 247 245 243 241 239 237 236 237 237 232 232 235 235 232 234 246 252 249 254 262 267
237 234 230 228 226 224 222 221 221 221 222 222 225 227 226 225 225 225 225 226 225 220 218 219 219 220 222 223 223 226 227 230 241 241 232 227 225 224 224 224 228 228 227 229 230 230 230 229 230 229 230 230 231 239 234 235 236 232 239 239 239 243 240 247 251 249 247 245 244 241 239 241 241 238 236 235 229 226 229 232 235 236 242 247 245 247 257 264
238 236 233 229 227 225 223 221 219 220 221 220 221 223 225 224 222 224 223 223 224 221 218 218 219 220 222 223 222 226 226 220 225 238 231 225 225 224 223 224 227 228 226 227 228 228 229 229 230 229 231 231 230 239 236 233 238 236 237 242 245 245 243 249 253 254 250 246 244 243 244 245 244 243 240 236 232 235 237 236 238 239 241 243 244 245 248 256
236 237 235 232 229 227 225 222 219 218 219 219 218 220 223 223 221 222 222 221 221 221 219 218 220 219 221 222 223 228 227 221 221 228 227 220 220 222 223 223 224 227 226 226 227 227 229 230 232 230 231 233 233 238 235 232 239 239 235 236 245 246 245 250 253 255 254 250 247 246 246 247 247 248 247 240 234 240 242 237 238 241 242 243 246 248 249 251
235 235 235 234 231 228 226 224 220 217 217 217 216 217 220 221 220 220 220 220 219 219 218 218 220 219 221 223 225 229 227 225 225 226 231 218 213 219 222 223 224 226 226 227 227 227 229 232 233 233 233 234 234 235 235 238 242 244 240 238 246 249 248 250 253 255 254 252 251 249 249 250 251 250 252 248 239 240 244 240 241 245 247 246 247 250 253 253
234 233 233 234 232 229 226 225 222 217 215 216 215 214 217 218 219 218 218 219 217 217 217 218 220 220 220 222 226 229 226 227 229 226 230 223 210 216 220 222 224 226 227 227 227 227 228 232 233 233 234 235 234 232 234 240 241 243 244 240 244 249 250 250 252 254 254 254 253 252 252 251 253 251 251 253 245 241 244 246 245 246 249 250 250 251 254 255
233 232 232 233 232 231 228 225 224 219 214 215 214 212 214 216 217 217 216 217 216 215 215 217 219 220 222 222 226 227 225 229 232 230 230 230 220 215 218 221 223 226 228 228 228 229 230 231 232 230 230 232 233 233 235 239 240 241 243 242 244 248 251 251 250 253 253 255 255 253 254 252 254 252 248 251 251 247 246 249 250 250 251 253 254 255 255 257
231 230 231 231 230 229 228 225 224 220 214 213 213 211 212 214 216 217 215 215 216 214 214 216 218 221 223 226 227 226 226 230 234 234 233 233 229 218 219 219 220 225 227 229 229 230 231 231 233 231 230 230 231 233 236 239 240 243 244 244 249 251 251 250 249 252 252 253 254 254 257 254 253 254 253 254 256 258 255 252 254 255 255 255 257 258 259 260
230 229 229 230 228 227 227 225 223 221 216 212 211 211 212 214 215 216 216 214 215 214 213 216 218 218 222 227 229 228 229 230 233 236 233 234 232 227 229 221 218 223 225 228 229 229 230 230 231 230 231 230 227 230 234 237 238 240 243 244 247 250 252 250 248 249 250 252 253 254 258 256 254 260 268 265 258 258 259 255 255 257 258 259 260 260 261 262
229 228 228 228 227 225 224 224 221 220 217 212 210 211 212 214 215 215 215 213 213 213 211 215 216 215 219 224 227 229 230 230 232 235 233 235 235 232 237 230 220 221 220 222 224 225 226 227 228 227 229 229 225 228 231 233 236 237 240 242 238 240 249 251 249 249 249 251 252 252 255 255 252 252 265 268 259 253 256 258 258 259 260 262 263 264 263 262
229 228 227 227 226 224 222 221 221 219 218 213 210 210 211 212 215 215 215 212 210 210 209 213 214 213 217 221 224 227 228 228 230 231 231 237 238 231 234 235 227 222 220 220 220 221 220 223 227 226 226 225 223 225 227 228 234 233 230 234 234 234 239 242 245 249 248 249 250 249 253 257 254 250 248 257 261 257 256 260 262 262 262 263 265 267 266 263
228 226 224 224 225 223 221 219 219 218 217 214 210 209 209 211 214 214 214 212 209 208 208 212 213 211 216 219 222 225 226 226 227 229 228 232 238 231 231 240 236 227 224 221 218 217 217 218 223 226 225 224 220 220 223 223 226 227 224 227 230 229 231 235 242 247 245 246 248 246 248 254 255 256 252 252 258 262 262 261 262 263 264 263 264 265 266 266
228 226 223 222 223 222 220 218 217 216 215 213 210 209 208 210 214 213 213 211 208 208 208 211 212 213 217 219 221 224 224 223 224 226 226 227 234 232 230 237 237 230 228 223 217 214 214 215 219 223 225 225 221 217 214 212 213 217 220 226 231 228 226 227 236 246 244 242 245 247 249 250 248 252 256 256 258 260 261 262 263 263 263 263 263 263 266 268
228 227 223 221 221 221 219 217 215 213 213 212 210 208 207 209 213 214 212 211 209 209 212 212 210 213 218 217 218 222 223 222 222 223 223 222 226 230 229 231 229 224 222 220 218 213 209 212 215 219 222 223 222 216 212 212 212 211 213 219 229 232 225 221 228 243 248 246 245 246 249 252 250 250 255 260 263 262 260 261 263 263 261 262 264 265 267 270
226 226 224 220 219 219 218 216 213 210 210 210 209 207 207 210 214 217 213 212 210 208 213 214 209 210 214 214 216 220 222 223 221 219 219 219 221 223 222 223 223 221 218 216 218 216 209 207 210 214 219 221 221 217 216 218 216 215 216 218 222 230 230 225 231 242 248 249 246 244 246 251 253 252 254 256 261 265 264 260 260 262 263 262 263 265 268 271
225 224 224 220 218 217 216 215 212 209 207 208 207 205 208 211 214 217 213 213 213 208 211 215 213 212 211 212 214 215 218 222 221 217 217 218 219 220 212 208 217 220 216 214 217 219 214 209 211 214 219 223 223 220 219 219 220 222 220 219 220 225 233 232 235 240 241 243 245 246 248 251 253 254 255 256 257 261 264 263 259 260 265 265 265 265 268 271
225 223 223 220 217 216 214 212 210 208 206 206 206 206 208 208 210 213 211 212 215 211 212 215 216 215 212 213 213 212 214 218 220 218 217 217 219 220 216 211 221 223 212 208 212 216 215 212 215 218 221 225 226 223 222 219 220 226 220 220 224 226 233 233 232 239 237 238 243 248 253 254 256 255 256 258 258 258 261 263 262 260 264 267 268 267 269 272
225 223 222 220 217 214 213 212 209 207 206 206 206 208 208 204 206 211 211 213 214 212 215 216 217 216 213 213 214 213 215 215 217 217 215 216 218 220 222 225 233 238 233 219 203 199 205 210 214 219 221 224 227 225 225 222 222 228 220 222 229 227 232 231 231 240 243 245 249 254 257 256 258 260 259 259 261 261 260 261 262 262 264 266 268 271 272 273
226 223 221 219 216 213 212 211 208 206 207 205 206 208 207 204 207 212 214 215 216 214 214 217 219 216 211 212 213 212 216 217 216 216 214 214 218 220 222 228 233 238 240 236 224 205 199 206 210 214 216 217 221 222 221 221 222 223 216 219 229 229 230 234 239 248 251 255 257 257 262 262 262 263 262 261 262 263 263 262 262 263 264 265 266 268 271 272
225 222 219 216 215 213 210 208 207 207 207 206 206 205 204 206 208 213 216 217 220 219 215 216 220 218 212 211 211 210 213 218 217 218 216 214 217 219 221 227 229 231 234 237 237 232 226 216 209 208 211 212 214 215 213 213 217 219 215 218 227 233 233 237 245 252 255 263 266 266 271 270 268 268 267 266 267 268 267 265 263 262 263 265 265 265 267 271
224 222 218 214 213 211 208 207 208 207 206 207 205 202 203 206 209 212 216 218 223 223 217 216 219 218 213 210 211 211 212 216 218 218 219 218 217 218 221 224 225 227 231 234 236 237 239 238 228 217 211 212 215 215 210 209 217 222 223 224 228 235 238 238 242 252 262 268 271 271 273 272 268 268 271 273 273 272 270 267 264 262 262 262 264 265 267 269
222 221 217 213 212 209 208 209 208 205 207 207 203 201 201 203 208 209 212 220 227 224 215 214 217 215 211 208 210 212 213 216 217 217 218 219 219 219 220 222 224 226 230 233 234 237 241 242 239 234 224 217 218 220 217 215 223 229 233 235 235 237 240 240 236 241 255 260 266 260 256 276 276 262 264 268 270 269 264 266 267 263 261 263 264 266 267 269
221 220 216 213 210 208 209 209 206 204 207 204 200 200 199 200 205 207 209 223 231 222 212 208 212 212 208 208 208 208 211 213 214 215 216 216 217 218 219 219 222 223 226 229 227 231 237 236 238 239 235 230 224 223 224 220 222 227 232 235 236 236 236 241 238 238 250 257 264 261 259 275 274 266 264 261 261 263 256 262 271 269 264 263 266 268 268 270
220 218 215 212 210 210 211 209 206 205 205 201 199 200 198 198 203 204 207 222 219 213 211 205 207 209 206 206 208 208 210 211 209 209 212 215 215 217 218 219 222 222 223 223 220 229 236 231 233 235 230 228 227 227 224 220 221 226 230 232 233 235 234 237 240 239 246 253 255 254 250 263 268 268 270 266 263 263 262 264 271 274 271 267 269 272 271 271
220 217 214 211 210 211 212 210 207 205 203 200 200 198 195 198 201 202 210 223 174 197 205 202 201 204 203 204 206 207 209 210 208 205 204 209 213 215 218 220 223 225 224 224 223 230 236 234 235 233 226 228 232 233 226 216 219 225 235 240 238 241 239 238 241 240 243 247 247 245 233 244 269 268 259 260 264 267 269 269 267 270 275 275 276 277 274 273
221 217 212 210 210 209 209 210 207 204 204 203 199 196 195 198 199 200 213 215 183 184 191 194 197 198 198 200 202 204 205 206 209 209 205 205 210 213 216 217 218 220 222 223 223 226 233 234 230 228 232 239 236 233 233 231 236 245 253 254 246 243 241 241 242 239 240 242 244 246 235 230 266 272 252 244 256 269 269 258 255 271 282 284 280 279 275 272
220 216 211 209 210 208 208 208 204 202 204 203 198 195 197 201 202 204 213 196 193 183 180 186 195 197 195 197 200 200 201 203 206 206 203 202 206 209 210 209 208 209 213 214 212 217 226 227 219 220 229 235 228 229 235 240 245 253 256 252 252 251 239 237 234 229 228 236 246 249 240 227 247 260 251 238 242 250 252 250 265 283 289 286 279 281 276 266
218 214 211 209 209 209 210 207 201 200 202 200 197 196 198 202 206 212 194 184 194 185 178 181 189 193 195 197 199 200 200 202 202 203 202 199 199 203 207 208 203 196 196 200 202 209 218 223 222 221 225 227 225 223 229 237 240 241 238 235 239 262 240 227 215 219 219 230 242 248 236 225 244 254 256 255 251 254 264 271 280 283 282 281 278 277 271 264
217 212 210 209 208 209 210 207 202 202 201 197 197 199 200 202 206 208 193 177 185 184 177 180 187 192 195 195 196 199 200 203 203 203 207 204 198 197 201 204 203 198 192 194 197 200 209 222 222 217 219 221 221 217 216 221 224 223 223 222 214 204 248 231 214 222 232 233 236 240 229 215 245 261 263 262 263 267 271 276 283 281 279 277 266 261 263 262
214 210 208 207 208 208 209 206 203 203 201 197 198 199 202 205 194 198 195 180 174 177 177 181 185 189 194 194 195 197 196 202 205 204 208 208 201 196 196 197 198 200 196 192 194 194 194 207 211 209 214 215 216 218 215 216 219 220 222 220 213 214 225 241 235 227 295 248 236 229 221 187 229 255 266 267 266 266 265 267 272 279 283 272 260 260 262 261
211 208 207 206 206 207 206 205 202 203 201 198 201 202 202 201 183 192 196 183 172 172 176 182 181 179 186 192 195 197 194 195 202 203 205 207 205 202 202 200 196 197 196 188 186 193 193 199 211 213 218 220 217 216 215 217 221 223 220 217 220 226 227 237 271 266 300 315 249 220 208 202 233 250 260 261 257 252 256 265 272 279 282 272 265 263 253 254
208 206 206 205 206 204 204 203 201 203 203 199 202 206 206 203 190 192 196 188 182 178 172 176 179 173 175 184 189 194 196 194 194 196 199 205 208 207 206 206 202 198 198 191 180 183 191 198 210 209 214 220 218 215 215 214 216 218 213 212 222 229 228 230 256 265 270 290 276 242 231 231 246 257 257 254 258 262 265 271 275 276 278 268 260 253 234 240
205 204 204 204 205 203 202 202 201 203 204 202 203 205 206 207 201 192 194 191 188 185 175 171 177 173 169 175 181 189 194 191 188 189 192 200 207 206 203 205 206 202 201 198 188 184 185 186 201 204 211 217 214 217 221 215 214 212 208 213 219 225 225 223 238 269 248 252 268 256 251 246 247 261 268 258 256 263 269 276 270 260 272 278 261 240 234 254
202 201 203 203 203 202 201 200 201 202 202 203 207 208 205 207 208 197 189 189 185 181 179 173 174 177 172 169 177 187 190 190 189 190 192 196 202 204 200 201 208 205 200 196 190 190 183 169 192 203 213 215 203 203 212 211 215 216 213 215 212 210 215 211 212 231 223 241 264 243 247 248 242 250 268 264 241 256 273 283 274 263 279 289 269 251 259 276
198 199 202 202 200 200 200 199 200 201 199 201 208 213 208 204 207 204 190 189 186 180 181 179 175 180 180 179 182 186 190 193 193 194 196 197 201 206 202 202 206 204 198 192 191 195 190 178 187 193 199 205 195 196 203 204 210 217 221 221 214 214 211 202 208 213 209 233 254 247 243 239 248 256 262 262 265 271 271 273 278 281 286 288 278 273 276 283
195 199 200 201 198 196 197 199 200 200 200 200 204 212 214 206 199 198 192 191 190 183 183 185 181 181 186 188 187 187 192 195 194 194 197 199 202 208 208 205 205 200 196 198 198 196 195 196 194 182 185 194 193 198 205 204 202 206 213 215 214 217 214 210 219 217 214 221 230 257 257 245 253 261 264 265 271 273 267 267 275 281 284 284 281 279 280 283
193 197 199 198 197 194 193 195 198 200 201 203 205 207 213 214 201 187 185 187 189 188 188 189 189 187 188 190 189 188 191 194 195 193 195 199 200 205 210 211 212 205 197 197 199 196 196 200 192 174 180 193 201 207 213 211 207 209 211 211 213 214 206 204 223 216 216 217 212 222 263 260 258 259 263 264 267 269 267 271 276 278 279 280 281 280 280 281
192 197 199 197 195 193 191 191 197 200 199 203 208 205 204 209 205 191 186 186 186 190 190 189 192 192 191 192 193 192 189 190 194 194 198 204 202 204 210 211 213 211 203 199 201 201 198 196 189 179 187 199 206 211 213 213 216 221 219 216 218 216 207 206 211 208 211 215 224 235 260 265 262 261 261 262 264 269 271 272 275 276 275 277 280 280 280 279
192 196 197 195 195 193 189 190 196 199 197 201 209 211 201 197 198 194 192 191 188 189 190 190 193 193 193 194 193 191 189 189 195 198 200 203 201 208 213 206 205 208 205 202 200 199 195 190 186 181 189 200 207 214 217 217 218 221 223 222 221 220 218 218 218 215 209 209 219 225 239 261 266 266 263 263 265 269 271 271 274 277 278 278 278 278 279 278
191 193 193 191 194 194 189 191 194 194 196 200 205 210 203 192 191 191 191 193 192 192 193 194 196 196 196 197 195 193 189 187 193 198 199 198 202 210 212 206 202 203 204 204 201 200 199 190 185 180 175 194 205 214 218 219 220 222 225 225 223 225 227 226 225 232 238 219 218 216 226 252 263 269 265 264 266 268 273 278 280 280 278 276 276 277 278 276
184 185 188 186 191 195 192 194 195 192 195 198 199 203 199 189 188 189 189 191 193 195 196 197 199 201 199 198 196 193 191 188 187 190 193 195 200 205 203 201 200 198 200 203 204 204 201 190 188 193 194 196 203 209 213 215 218 223 226 227 228 229 227 226 227 230 236 232 226 225 235 250 259 265 263 264 268 271 277 283 287 285 280 278 277 276 275 274
180 173 173 177 186 194 195 195 196 195 196 194 190 192 194 188 186 188 188 188 190 194 197 197 199 198 196 195 191 186 191 194 192 191 193 196 199 197 192 192 197 198 199 200 201 202 201 196 197 203 209 213 213 217 221 219 215 221 228 229 230 232 229 228 228 228 234 238 235 236 243 255 262 263 263 265 269 273 276 278 283 285 283 283 282 278 277 279
182 174 171 174 180 189 196 196 195 197 200 198 191 185 186 187 184 183 186 187 188 191 194 196 199 195 191 190 187 185 191 196 196 194 193 198 201 197 189 189 193 198 202 204 205 206 207 208 211 212 216 222 222 224 231 226 217 222 231 232 231 231 230 228 229 234 238 240 244 246 248 256 262 262 262 266 270 274 275 274 277 280 281 283 283 281 282 285
184 181 178 178 179 185 193 196 196 196 196 197 197 192 187 186 183 182 185 187 189 192 192 193 198 201 199 195 188 185 188 192 195 196 197 202 202 197 193 193 194 198 202 205 209 213 214 216 220 222 224 227 226 225 231 226 217 218 225 231 233 233 232 232 234 239 241 243 249 252 252 254 259 263 265 266 269 272 272 272 274 278 282 284 284 283 282 284
186 183 178 180 183 186 190 194 196 196 192 192 196 194 191 190 187 186 187 188 189 194 195 195 196 201 206 205 199 194 194 196 197 198 203 206 203 201 198 196 199 202 202 202 207 212 215 220 224 225 230 234 233 232 235 235 234 233 232 232 233 236 241 243 245 248 250 251 254 257 259 259 259 263 267 266 266 268 270 272 274 278 284 286 287 289 289 287
188 184 179 181 185 186 189 191 193 194 192 191 191 191 192 193 190 188 188 189 189 191 196 200 199 199 204 207 207 207 209 212 209 206 207 206 202 203 200 197 201 201 195 196 203 207 211 219 224 223 229 239 238 236 238 240 242 245 245 245 245 244 248 251 253 255 254 255 257 259 261 263 263 264 267 268 269 270 271 271 271 275 280 283 286 290 293 294
192 188 183 183 184 184 186 188 190 191 189 190 191 189 189 192 193 191 188 190 193 193 194 198 198 197 200 204 208 212 216 220 220 219 219 216 212 210 208 207 208 201 194 197 205 209 211 212 219 222 225 240 242 241 245 248 251 254 253 256 256 253 254 255 256 256 256 257 258 255 255 261 264 264 266 269 272 273 273 273 273 274 276 279 283 286 289 294
197 191 184 184 184 184 186 187 187 190 191 194 198 194 190 192 196 194 189 189 195 197 197 198 198 195 194 197 203 206 210 217 220 221 223 222 221 220 219 220 221 216 213 213 212 216 217 216 218 216 219 238 243 245 251 254 252 249 250 255 257 254 255 257 257 257 258 257 255 251 254 261 263 264 267 269 270 271 272 274 276 277 278 280 282 280 282 287
Height
3032 3035 3039 3043 3046 3050 3053 3056 3060 3063 3066 3069 3073 3076 3079 3083 3086 3090 3093 3097 3101 3104 3108 3111 3114 3117 3120 3121 3123 3125 3127 3127 3129 3129 3129 3135 3143 3146 3149 3149 3151 3153 3155 3157 3159 3161 3163 3164 3165 3167 3168 3169 3169 3170 3171 3172 3174 3175 3176 3177 3176 3177 3178 3178 3179 3179 3179 3179 3178 3178 3179 3180 3180 3180 3180 3180 3181 3181 3181 3181 3181 3181 3181 3181 3181 3181 3182 3181
3026 3030 3034 3038 3042 3045 3049 3052 3056 3059 3062 3066 3069 3073 3076 3079 3083 3087 3090 3094 3098 3102 3105 3108 3111 3114 3118 3120 3121 3124 3124 3125 3126 3124 3127 3137 3142 3143 3145 3147 3149 3151 3153 3156 3158 3160 3162 3163 3164 3165 3166 3167 3168 3169 3170 3171 3172 3174 3175 3175 3175 3176 3176 3175 3176 3176 3177 3177 3177 3177 3178 3179 3179 3179 3179 3180 3180 3181 3181 3181 3181 3180 3181 3181 3181 3181 3181 3182
3021 3024 3028 3032 3037 3041 3044 3048 3052 3055 3059 3062 3065 3069 3073 3076 3080 3083 3087 3091 3095 3099 3102 3106 3109 3112 3116 3118 3120 3122 3122 3123 3119 3118 3127 3136 3138 3140 3143 3145 3147 3148 3151 3154 3157 3159 3160 3161 3162 3163 3165 3166 3167 3167 3168 3169 3170 3172 3173 3173 3174 3175 3174 3173 3173 3174 3175 3176 3176 3176 3177 3178 3178 3178 3179 3179 3180 3180 3181 3181 3181 3180 3180 3181 3180 3180 3181 3181
3016 3019 3023 3027 3031 3036 3040 3044 3048 3052 3056 3059 3062 3066 3070 3073 3076 3080 3084 3088 3092 3096 3099 3103 3106 3109 3113 3116 3118 3118 3120 3119 3113 3116 3128 3134 3134 3137 3140 3142 3144 3146 3148 3151 3154 3156 3157 3159 3160 3161 3163 3164 3165 3165 3166 3167 3168 3171 3170 3171 3173 3173 3173 3171 3171 3172 3173 3174 3175 3175 3176 3177 3177 3177 3178 3179 3179 3180 3181 3181 3181 3180 3180 3180 3180 3180 3180 3180
3011 3014 3018 3022 3026 3031 3035 3040 3044 3048 3052 3056 3059 3062 3066 3070 3073 3077 3081 3085 3089 3093 3097 3101 3104 3107 3110 3113 3114 3115 3117 3114 3108 3116 3126 3129 3131 3134 3136 3139 3141 3143 3146 3148 3151 3153 3154 3156 3158 3160 3161 3162 3163 3163 3165 3165 3166 3168 3167 3169 3172 3171 3171 3170 3168 3171 3172 3173 3174 3174 3175 3175 3175 3176 3177 3177 3178 3180 3180 3179 3180 3180 3179 3179 3179 3179 3179 3180
3006 3009 3013 3017 3021 3025 3030 3035 3039 3043 3048 3052 3056 3059 3063 3066 3070 3074 3077 3081 3086 3090 3094 3098 3101 3104 3106 3109 3111 3111 3112 3108 3106 3114 3121 3124 3127 3130 3134 3137 3139 3141 3143 3145 3148 3150 3152 3154 3155 3157 3158 3160 3162 3161 3163 3165 3164 3165 3166 3168 3169 3168 3169 3168 3167 3169 3171 3171 3172 3172 3173 3173 3174 3175 3175 3175 3177 3178 3178 3178 3178 3178 3178 3179 3179 3179 3179 3179
3001 3005 3008 3012 3016 3020 3025 3030 3035 3039 3044 3048 3052 3056 3059 3063 3067 3070 3074 3078 3082 3087 3091 3095 3098 3101 3103 3106 3106 3107 3105 3102 3105 3112 3116 3120 3124 3128 3131 3134 3136 3138 3140 3142 3144 3146 3149 3151 3152 3155 3157 3158 3160 3160 3162 3163 3162 3163 3165 3166 3166 3165 3167 3166 3166 3168 3169 3170 3170 3170 3171 3172 3173 3173 3173 3174 3176 3176 3176 3177 3177 3177 3178 3178 3178 3178 3178 3178
2997 3000 3003 3008 3011 3015 3019 3025 3030 3035 3040 3044 3049 3053 3056 3060 3064 3067 3071 3075 3079 3084 3088 3091 3094 3097 3100 3102 3102 3103 3099 3098 3104 3110 3112 3116 3119 3124 3127 3129 3132 3134 3137 3139 3141 3144 3147 3148 3150 3153 3155 3156 3159 3159 3161 3161 3160 3161 3162 3165 3164 3163 3165 3165 3165 3167 3167 3168 3168 3169 3169 3170 3170 3170 3170 3172 3175 3175 3174 3175 3175 3176 3176 3177 3177 3177 3177 3177
2993 2996 2999 3003 3007 3011 3015 3020 3025 3031 3035 3040 3045 3049 3053 3057 3061 3065 3068 3072 3076 3080 3084 3088 3091 3095 3098 3099 3099 3098 3095 3096 3103 3108 3111 3113 3116 3120 3123 3125 3129 3132 3135 3137 3139 3142 3144 3146 3148 3151 3153 3155 3157 3158 3159 3159 3159 3159 3161 3163 3162 3162 3163 3164 3164 3165 3165 3166 3166 3167 3168 3168 3168 3168 3168 3170 3173 3173 3172 3173 3174 3174 3175 3176 3176 3176 3176 3176
2988 2992 2995 2998 3002 3006 3010 3015 3020 3026 3031 3036 3041 3046 3050 3054 3057 3061 3065 3069 3073 3077 3081 3084 3087 3092 3094 3095 3095 3092 3092 3095 3099 3104 3109 3112 3113 3116 3119 3123 3126 3130 3132 3135 3137 3139 3141 3144 3147 3150 3151 3153 3154 3156 3156 3156 3157 3158 3159 3161 3160 3160 3161 3161 3163 3163 3163 3164 3164 3165 3166 3166 3166 3165 3166 3167 3170 3170 3170 3172 3173 3173 3173 3174 3175 3175 3175 3175
2984 2987 2991 2994 2998 3002 3006 3010 3015 3021 3027 3032 3037 3042 3046 3051 3055 3058 3062 3066 3070 3074 3077 3080 3084 3088 3090 3092 3090 3089 3092 3093 3095 3102 3107 3110 3112 3114 3117 3120 3123 3127 3129 3132 3135 3137 3140 3142 3144 3147 3148 3149 3150 3153 3154 3153 3155 3156 3157 3159 3158 3158 3159 3159 3161 3161 3162 3163 3162 3163 3163 3164 3163 3162 3163 3166 3167 3168 3170 3171 3171 3171 3172 3172 3173 3173 3174 3174
2980 2983 2986 2990 2994 2997 3002 3006 3011 3016 3022 3028 3033 3038 3043 3048 3052 3055 3059 3063 3067 3071 3074 3078 3080 3084 3088 3087 3085 3089 3092 3090 3092 3099 3105 3108 3110 3112 3115 3117 3120 3124 3127 3130 3133 3135 3138 3139 3142 3145 3145 3145 3148 3150 3149 3150 3153 3154 3155 3156 3156 3157 3156 3156 3159 3159 3161 3161 3160 3162 3161 3160 3159 3159 3162 3165 3165 3166 3168 3169 3169 3169 3170 3170 3171 3171 3172 3172
2975 2979 2982 2986 2989 2993 2998 3002 3007 3012 3018 3024 3029 3035 3040 3044 3049 3053 3057 3060 3064 3068 3072 3075 3077 3081 3083 3081 3083 3089 3089 3088 3091 3097 3103 3105 3108 3110 3112 3115 3118 3121 3123 3127 3130 3132 3135 3137 3139 3141 3141 3143 3145 3145 3145 3148 3150 3151 3153 3155 3155 3154 3152 3153 3156 3157 3159 3159 3159 3162 3158 3156 3158 3159 3161 3162 3163 3164 3164 3165 3167 3167 3167 3168 3168 3169 3169 3170
2971 2975 2978 2982 2985 2989 2994 2998 3003 3008 3014 3019 3025 3031 3036 3041 3046 3050 3054 3058 3061 3065 3069 3071 3074 3077 3076 3077 3082 3085 3084 3087 3090 3095 3100 3102 3104 3108 3111 3114 3116 3116 3119 3122 3125 3128 3131 3134 3135 3136 3138 3140 3141 3142 3144 3146 3147 3150 3152 3152 3152 3151 3150 3152 3153 3154 3157 3157 3158 3160 3155 3153 3157 3159 3160 3159 3159 3161 3161 3162 3164 3164 3165 3166 3166 3166 3166 3167
2966 2970 2974 2977 2981 2985 2990 2994 2999 3004 3009 3015 3021 3027 3032 3038 3043 3047 3051 3054 3059 3062 3066 3067 3069 3071 3072 3073 3077 3078 3081 3085 3088 3093 3098 3099 3101 3105 3109 3111 3112 3114 3116 3117 3120 3124 3128 3131 3131 3132 3134 3136 3138 3140 3142 3143 3145 3148 3149 3147 3147 3148 3149 3151 3150 3151 3154 3154 3156 3158 3153 3152 3155 3157 3159 3157 3155 3158 3160 3160 3161 3162 3163 3164 3164 3163 3163 3163
2962 2966 2970 2973 2977 2981 2986 2990 2995 3000 3005 3011 3017 3023 3029 3034 3039 3044 3048 3052 3056 3059 3061 3062 3064 3067 3067 3068 3072 3073 3077 3081 3085 3091 3096 3098 3098 3101 3106 3108 3110 3112 3113 3115 3118 3121 3124 3127 3128 3128 3130 3134 3136 3137 3140 3142 3143 3143 3143 3143 3144 3145 3148 3149 3148 3148 3152 3153 3153 3154 3151 3152 3154 3154 3155 3154 3154 3156 3157 3158 3159 3159 3160 3161 3161 3161 3159 3160
2958 2962 2966 2969 2973 2977 2982 2987 2991 2996 3002 3007 3013 3020 3025 3031 3036 3041 3045 3049 3051 3054 3056 3057 3062 3065 3062 3064 3067 3068 3072 3078 3083 3088 3093 3096 3097 3099 3103 3105 3107 3108 3110 3113 3115 3116 3119 3122 3124 3125 3127 3130 3133 3136 3138 3137 3136 3137 3139 3141 3142 3143 3145 3147 3146 3146 3149 3150 3150 3150 3148 3149 3151 3152 3152 3152 3152 3153 3154 3155 3156 3156 3157 3158 3158 3158 3157 3158
2955 2959 2961 2965 2969 2974 2978 2983 2988 2993 2998 3004 3010 3016 3022 3028 3033 3037 3040 3043 3046 3051 3052 3052 3057 3057 3053 3057 3061 3064 3070 3076 3081 3086 3089 3092 3094 3097 3100 3102 3103 3104 3106 3109 3109 3111 3115 3117 3119 3122 3123 3126 3129 3131 3130 3127 3129 3133 3136 3138 3140 3141 3142 3144 3144 3144 3146 3147 3148 3147 3145 3145 3148 3150 3150 3150 3149 3149 3151 3152 3153 3153 3154 3155 3155 3155 3156 3156
2951 2955 2958 2962 2965 2970 2974 2979 2984 2989 2995 3001 3006 3013 3019 3024 3028 3030 3033 3035 3036 3039 3039 3040 3044 3044 3046 3053 3059 3065 3071 3073 3077 3082 3085 3088 3091 3094 3097 3099 3100 3100 3101 3103 3105 3107 3110 3113 3114 3115 3116 3118 3120 3123 3123 3126 3131 3134 3134 3136 3138 3139 3140 3142 3143 3142 3143 3144 3144 3144 3143 3143 3146 3147 3148 3149 3147 3146 3147 3149 3150 3151 3152 3153 3153 3153 3154 3154
2948 2951 2955 2958 2961 2966 2971 2976 2981 2986 2992 2996 3001 3007 3010 3013 3017 3019 3023 3026 3027 3031 3033 3035 3039 3042 3047 3054 3057 3062 3065 3067 3071 3076 3080 3085 3088 3091 3094 3094 3096 3097 3098 3100 3101 3104 3108 3109 3108 3108 3110 3113 3117 3121 3125 3129 3132 3133 3134 3134 3135 3138 3139 3141 3142 3140 3141 3142 3141 3141 3141 3141 3142 3143 3144 3146 3145 3144 3143 3145 3147 3149 3149 3149 3150 3150 3151 3152
2945 2948 2951 2955 2959 2962 2967 2972 2977 2982 2988 2992 2995 2997 2997 3002 3007 3011 3017 3022 3025 3031 3032 3033 3039 3043 3047 3050 3053 3057 3060 3062 3066 3071 3077 3082 3086 3088 3090 3090 3091 3092 3094 3097 3098 3100 3104 3104 3104 3107 3111 3114 3118 3122 3126 3128 3128 3130 3132 3132 3134 3136 3137 3140 3140 3137 3139 3140 3139 3139 3139 3139 3139 3139 3141 3142 3141 3141 3141 3142 3144 3146 3147 3146 3147 3147 3148 3149
2942 2944 2948 2952 2955 2959 2964 2969 2973 2979 2983 2986 2989 2990 2993 3001 3007 3012 3019 3021 3023 3027 3028 3031 3036 3039 3044 3048 3050 3055 3057 3060 3063 3067 3072 3078 3081 3084 3086 3088 3088 3089 3092 3095 3096 3097 3098 3100 3103 3107 3111 3115 3118 3120 3123 3124 3125 3128 3130 3130 3132 3134 3136 3138 3137 3135 3137 3139 3138 3138 3136 3135 3136 3136 3137 3138 3137 3138 3139 3140 3141 3143 3144 3143 3144 3145 3145 3146
2938 2941 2945 2948 2952 2956 2960 2965 2971 2975 2977 2979 2982 2985 2993 3003 3009 3015 3018 3020 3022 3023 3024 3027 3029 3033 3040 3043 3046 3051 3054 3056 3060 3063 3067 3073 3076 3080 3083 3084 3086 3088 3089 3091 3094 3095 3095 3097 3101 3104 3108 3112 3115 3117 3120 3122 3124 3125 3126 3128 3130 3133 3136 3136 3135 3134 3136 3136 3136 3135 3132 3130 3131 3132 3131 3133 3134 3135 3136 3137 3139 3140 3140 3140 3142 3143 3142 3143
2935 2939 2941 2945 2950 2953 2957 2963 2967 2968 2971 2975 2978 2984 2994 3002 3007 3012 3016 3019 3019 3017 3019 3023 3026 3031 3035 3037 3041 3046 3049 3053 3056 3059 3063 3068 3072 3077 3079 3081 3085 3086 3086 3088 3092 3094 3095 3098 3101 3103 3106 3109 3112 3114 3116 3119 3121 3122 3124 3126 3129 3132 3134 3133 3134 3134 3134 3134 3133 3133 3130 3124 3125 3127 3126 3129 3131 3130 3132 3134 3135 3136 3137 3137 3138 3139 3139 3140
2932 2935 2938 2942 2946 2950 2957 2959 2959 2963 2968 2972 2976 2984 2993 2999 3005 3011 3015 3016 3013 3012 3016 3019 3021 3025 3030 3035 3038 3042 3046 3050 3052 3055 3059 3064 3068 3073 3076 3079 3081 3082 3084 3086 3089 3091 3093 3096 3101 3103 3105 3108 3110 3112 3114 3117 3119 3120 3122 3125 3128 3132 3132 3132 3133 3133 3133 3132 3131 3132 3128 3118 3120 3124 3123 3126 3127 3125 3127 3128 3129 3132 3133 3134 3135 3136 3137 3137
2928 2932 2935 2939 2942 2948 2952 2950 2953 2961 2965 2967 2974 2983 2989 2996 3003 3008 3013 3013 3005 3003 3007 3009 3014 3019 3025 3031 3034 3040 3045 3045 3047 3052 3056 3061 3066 3070 3073 3075 3077 3080 3083 3085 3087 3088 3089 3094 3098 3101 3104 3107 3109 3111 3113 3116 3119 3120 3122 3125 3127 3130 3130 3130 3132 3132 3131 3132 3130 3131 3128 3117 3115 3120 3121 3124 3124 3123 3124 3123 3123 3128 3130 3131 3132 3133 3134 3134
2924 2928 2932 2936 2939 2943 2944 2945 2952 2957 2958 2963 2973 2980 2986 2994 3001 3004 3010 3008 2995 2993 2999 3001 3007 3015 3021 3026 3030 3036 3037 3038 3046 3049 3051 3058 3063 3066 3069 3071 3074 3077 3081 3084 3084 3083 3085 3090 3093 3096 3101 3105 3107 3109 3112 3115 3118 3119 3120 3123 3125 3127 3128 3129 3130 3130 3129 3131 3129 3127 3129 3121 3110 3112 3117 3120 3121 3120 3121 3120 3119 3123 3126 3129 3130 3130 3132 3132
2921 2925 2928 2932 2936 2938 2940 2945 2950 2952 2956 2964 2971 2978 2984 2991 2996 2999 3003 2996 2983 2985 2992 2995 3003 3013 3019 3023 3027 3030 3031 3036 3043 3044 3048 3056 3059 3062 3065 3068 3071 3074 3077 3079 3079 3079 3081 3085 3087 3090 3095 3100 3105 3108 3110 3113 3115 3115 3117 3120 3123 3124 3126 3127 3127 3127 3128 3130 3126 3122 3128 3121 3105 3105 3113 3114 3115 3115 3116 3118 3118 3119 3122 3125 3127 3127 3128 3129
2917 2921 2925 2929 2933 2935 2939 2943 2946 2950 2957 2964 2969 2976 2982 2988 2993 2996 2994 2985 2976 2978 2985 2991 3002 3008 3012 3018 3022 3025 3030 3036 3038 3040 3047 3051 3054 3058 3061 3066 3071 3073 3074 3075 3078 3079 3079 3080 3086 3089 3091 3096 3103 3108 3109 3111 3111 3114 3117 3119 3121 3122 3123 3124 3124 3125 3127 3124 3119 3118 3125 3119 3102 3101 3110 3109 3108 3110 3112 3115 3116 3116 3119 3122 3124 3125 3125 3126
2914 2918 2922 2926 2928 2930 2935 2938 2943 2949 2955 2961 2968 2974 2979 2984 2987 2986 2980 2973 2972 2975 2979 2986 2995 2999 3005 3012 3017 3020 3026 3031 3034 3040 3044 3046 3050 3055 3059 3065 3069 3071 3072 3074 3077 3078 3077 3080 3085 3087 3089 3094 3101 3105 3107 3109 3110 3113 3116 3118 3119 3119 3120 3121 3120 3123 3124 3117 3111 3112 3119 3120 3105 3097 3104 3107 3105 3106 3109 3112 3113 3114 3118 3120 3121 3121 3122 3122
2910 2914 2918 2920 2922 2926 2929 2932 2939 2947 2952 2958 2966 2971 2975 2978 2978 2973 2966 2966 2972 2975 2975 2978 2986 2994 3001 3006 3010 3016 3022 3026 3031 3036 3038 3042 3047 3050 3056 3060 3064 3068 3070 3071 3074 3075 3077 3080 3081 3084 3088 3092 3097 3101 3103 3106 3109 3111 3114 3116 3118 3118 3117 3117 3117 3119 3116 3109 3106 3108 3114 3119 3107 3095 3100 3104 3104 3105 3106 3109 3112 3113 3115 3116 3118 3119 3119 3119
2907 2910 2914 2916 2920 2924 2926 2930 2939 2944 2948 2955 2961 2965 2968 2969 2965 2960 2959 2965 2970 2970 2970 2972 2979 2990 2998 3003 3008 3012 3017 3022 3028 3032 3035 3038 3041 3044 3049 3051 3056 3061 3062 3065 3070 3073 3076 3077 3079 3084 3086 3088 3092 3096 3100 3104 3106 3108 3110 3114 3117 3118 3116 3113 3111 3111 3108 3104 3103 3105 3109 3112 3104 3094 3098 3101 3101 3103 3103 3105 3109 3111 3112 3113 3115 3116 3115 3115
2903 2907 2910 2913 2916 2920 2924 2931 2938 2941 2945 2952 2956 2959 2962 2958 2951 2952 2958 2962 2964 2966 2970 2972 2976 2985 2993 3000 3006 3010 3015 3018 3023 3029 3033 3035 3036 3039 3044 3047 3051 3053 3054 3059 3064 3068 3073 3076 3078 3080 3082 3084 3087 3090 3095 3096 3098 3101 3103 3107 3112 3115 3114 3110 3106 3104 3104 3102 3101 3104 3107 3107 3101 3094 3093 3095 3097 3099 3100 3102 3106 3107 3108 3110 3112 3113 3112 3112
2900 2903 2906 2909 2913 2917 2923 2929 2933 2937 2942 2947 2950 2953 2953 2948 2944 2950 2956 2957 2960 2966 2970 2972 2975 2982 2988 2994 2999 3006 3012 3016 3021 3026 3030 3032 3034 3036 3040 3043 3047 3050 3053 3058 3060 3062 3068 3070 3070 3074 3077 3080 3082 3086 3090 3091 3093 3095 3098 3103 3105 3107 3108 3106 3104 3103 3103 3100 3100 3103 3103 3101 3097 3092 3089 3090 3093 3096 3098 3100 3102 3104 3106 3108 3109 3109 3110 3110
2896 2899 2903 2907 2910 2914 2919 2924 2929 2935 2939 2942 2946 2945 2941 2939 2941 2947 2951 2954 2959 2965 2970 2974 2975 2979 2986 2993 2998 3002 3007 3012 3018 3024 3026 3029 3030 3033 3037 3039 3043 3047 3051 3056 3059 3062 3066 3066 3067 3071 3075 3077 3080 3084 3087 3090 3093 3094 3097 3101 3101 3101 3104 3104 3103 3103 3103 3102 3100 3099 3097 3094 3092 3089 3088 3090 3091 3093 3096 3098 3100 3102 3104 3105 3106 3106 3107 3107
2892 2896 2899 2902 2905 2910 2916 2921 2927 2932 2935 2939 2942 2938 2934 2937 2941 2944 2948 2953 2957 2960 2968 2975 2975 2976 2982 2990 2996 3001 3006 3011 3016 3020 3024 3028 3029 3031 3034 3037 3040 3044 3047 3051 3055 3059 3063 3065 3067 3070 3073 3076 3079 3082 3084 3087 3090 3091 3094 3095 3095 3097 3101 3104 3103 3102 3104 3104 3099 3095 3093 3092 3091 3087 3086 3088 3088 3090 3093 3096 3098 3100 3100 3101 3102 3103 3104 3104
2887 2891 2895 2898 2902 2908 2913 2919 2925 2929 2933 2936 2936 2933 2934 2938 2941 2943 2947 2952 2956 2960 2965 2968 2970 2973 2978 2985 2992 2998 3005 3011 3015 3017 3022 3026 3028 3029 3032 3036 3039 3043 3046 3049 3051 3054 3059 3063 3065 3067 3070 3073 3077 3081 3083 3086 3087 3088 3089 3090 3093 3097 3100 3103 3103 3102 3103 3102 3097 3093 3092 3093 3092 3086 3083 3085 3087 3089 3091 3093 3095 3096 3097 3098 3099 3100 3101 3101
2884 2889 2893 2896 2901 2907 2911 2917 2923 2927 2930 2933 2933 2932 2934 2937 2939 2942 2946 2950 2954 2959 2962 2964 2966 2971 2975 2981 2988 2994 3001 3007 3011 3014 3019 3023 3024 3025 3030 3034 3037 3042 3045 3047 3050 3053 3057 3061 3063 3065 3068 3071 3075 3079 3081 3083 3085 3085 3087 3088 3092 3095 3096 3098 3100 3099 3100 3098 3094 3091 3090 3090 3090 3085 3083 3086 3087 3089 3091 3091 3092 3093 3095 3095 3096 3097 3097 3098
2883 2887 2890 2894 2899 2905 2910 2915 2920 2924 2927 2928 2929 2930 2931 2934 2937 2941 2946 2950 2953 2956 2961 2964 2966 2970 2974 2977 2982 2989 2995 3000 3004 3009 3013 3016 3019 3022 3026 3030 3034 3039 3043 3045 3049 3051 3054 3058 3060 3063 3067 3069 3072 3075 3076 3078 3081 3084 3085 3087 3088 3090 3090 3092 3093 3093 3095 3095 3092 3090 3086 3084 3084 3083 3084 3087 3087 3089 3091 3091 3090 3091 3092 3092 3093 3093 3094 3095
2880 2884 2887 2892 2897 2903 2909 2914 2918 2921 2922 2924 2926 2928 2929 2932 2936 2941 2946 2951 2953 2955 2960 2963 2966 2969 2972 2975 2979 2985 2990 2995 2999 3004 3008 3011 3016 3019 3023 3027 3030 3035 3040 3044 3047 3049 3052 3054 3057 3061 3064 3065 3066 3067 3069 3071 3074 3077 3080 3082 3083 3085 3087 3088 3088 3089 3091 3091 3091 3089 3083 3077 3078 3082 3083 3084 3085 3087 3089 3089 3088 3088 3088 3089 3089 3090 3091 3091
2879 2883 2885 2890 2896 2900 2906 2910 2913 2916 2919 2923 2925 2926 2927 2931 2937 2941 2945 2950 2952 2955 2960 2964 2967 2969 2971 2974 2978 2982 2988 2994 2999 3003 3007 3009 3012 3016 3018 3023 3027 3031 3036 3040 3043 3045 3048 3052 3055 3058 3059 3061 3062 3063 3066 3069 3071 3072 3074 3075 3076 3078 3082 3085 3085 3084 3086 3085 3085 3085 3079 3070 3073 3080 3082 3082 3083 3084 3086 3086 3085 3085 3085 3085 3086 3086 3087 3088
2878 2880 2883 2889 2893 2897 2902 2907 2910 2914 2918 2920 2922 2924 2926 2930 2936 2941 2945 2949 2952 2955 2960 2964 2967 2970 2972 2974 2977 2980 2986 2991 2995 3000 3003 3006 3009 3013 3015 3019 3023 3028 3032 3035 3039 3042 3046 3050 3053 3055 3057 3059 3061 3063 3066 3068 3070 3072 3072 3073 3075 3076 3078 3079 3079 3078 3080 3080 3080 3083 3078 3067 3067 3077 3079 3079 3080 3081 3082 3082 3081 3081 3081 3082 3083 3083 3083 3084
2876 2879 2884 2889 2893 2896 2901 2905 2908 2912 2916 2919 2921 2925 2926 2928 2933 2939 2943 2948 2952 2955 2960 2963 2966 2970 2973 2976 2978 2981 2985 2989 2992 2997 3002 3006 3009 3011 3013 3017 3021 3025 3029 3032 3035 3039 3043 3047 3051 3054 3057 3059 3060 3062 3064 3066 3069 3070 3070 3071 3072 3073 3073 3075 3076 3075 3076 3077 3078 3081 3077 3065 3063 3071 3075 3075 3077 3077 3077 3077 3077 3078 3078 3078 3079 3079 3079 3080
2875 2880 2885 2889 2893 2897 2900 2901 2903 2908 2913 2916 2919 2922 2925 2929 2932 2936 2941 2946 2950 2955 2959 2962 2965 2969 2972 2976 2979 2982 2985 2989 2994 3000 3003 3005 3007 3008 3011 3016 3019 3023 3026 3028 3031 3036 3040 3043 3046 3050 3054 3057 3059 3061 3062 3063 3065 3064 3065 3067 3068 3069 3071 3073 3074 3074 3073 3073 3074 3075 3072 3063 3061 3068 3071 3071 3073 3073 3073 3074 3074 3075 3075 3074 3075 3075 3074 3075
2875 2881 2885 2888 2892 2896 2898 2899 2901 2906 2911 2914 2917 2920 2925 2930 2934 2936 2939 2943 2948 2953 2957 2960 2964 2968 2972 2975 2979 2983 2986 2989 2993 2998 3001 3003 3005 3007 3011 3016 3019 3022 3024 3027 3030 3034 3037 3040 3042 3044 3047 3050 3052 3053 3053 3055 3057 3058 3059 3062 3064 3066 3068 3068 3070 3070 3068 3069 3070 3069 3067 3063 3061 3065 3066 3067 3069 3070 3070 3072 3071 3070 3071 3070 3070 3070 3069 3069
2874 2878 2881 2884 2890 2894 2897 2899 2902 2905 2908 2911 2916 2920 2924 2928 2933 2938 2940 2942 2946 2951 2956 2959 2962 2967 2971 2974 2979 2984 2986 2988 2991 2994 2997 3001 3003 3006 3011 3014 3017 3020 3022 3025 3029 3032 3035 3037 3039 3041 3042 3044 3046 3047 3048 3050 3053 3054 3056 3058 3060 3062 3064 3065 3065 3064 3064 3067 3066 3065 3067 3066 3061 3060 3061 3062 3066 3068 3067 3068 3069 3068 3067 3067 3065 3063 3064 3065
2874 2875 2876 2880 2886 2892 2896 2898 2901 2905 2908 2911 2915 2919 2922 2926 2930 2936 2940 2943 2946 2950 2955 2959 2962 2966 2969 2973 2977 2982 2984 2987 2990 2993 2996 2999 3001 3006 3010 3013 3015 3019 3022 3025 3028 3030 3032 3034 3036 3039 3040 3042 3045 3046 3046 3049 3051 3052 3053 3054 3056 3059 3061 3061 3060 3060 3063 3064 3062 3062 3067 3067 3060 3056 3057 3059 3061 3063 3062 3063 3064 3064 3064 3064 3062 3059 3059 3060
2873 2874 2874 2878 2882 2886 2891 2896 2900 2904 2909 2912 2915 2919 2922 2925 2928 2933 2938 2942 2946 2949 2953 2958 2961 2965 2968 2972 2976 2980 2983 2986 2990 2993 2995 2996 3000 3005 3008 3011 3014 3016 3020 3023 3026 3027 3030 3032 3034 3036 3037 3040 3043 3044 3044 3046 3049 3050 3051 3052 3054 3056 3057 3057 3057 3058 3060 3060 3059 3061 3065 3065 3058 3052 3053 3056 3057 3057 3056 3056 3058 3059 3059 3059 3058 3056 3056 3056
2871 2873 2874 2878 2882 2885 2890 2896 2900 2904 2908 2911 2915 2919 2921 2924 2927 2931 2935 2939 2944 2948 2951 2955 2959 2964 2968 2971 2974 2977 2979 2981 2985 2989 2991 2993 2998 3002 3005 3007 3010 3013 3017 3020 3023 3025 3027 3029 3031 3034 3035 3037 3039 3041 3043 3045 3046 3047 3048 3050 3052 3053 3054 3055 3055 3056 3057 3056 3057 3059 3059 3057 3055 3051 3049 3052 3054 3053 3053 3052 3053 3054 3055 3054 3052 3050 3050 3051
2871 2873 2874 2878 2883 2887 2892 2896 2900 2904 2908 2912 2915 2918 2920 2922 2925 2929 2932 2936 2939 2944 2948 2952 2957 2962 2966 2970 2972 2974 2976 2978 2981 2985 2987 2991 2996 3000 3002 3004 3006 3010 3015 3018 3020 3022 3025 3028 3030 3032 3034 3034 3035 3038 3041 3042 3043 3043 3045 3047 3049 3051 3052 3052 3052 3053 3053 3051 3052 3055 3053 3050 3052 3052 3048 3047 3049 3051 3051 3050 3049 3049 3050 3049 3048 3046 3045 3045
2872 2874 2876 2878 2882 2887 2892 2896 2900 2904 2908 2912 2914 2917 2920 2922 2923 2926 2931 2935 2937 2940 2944 2948 2954 2961 2965 2969 2972 2974 2976 2979 2982 2985 2987 2991 2996 2999 3001 3004 3006 3010 3014 3017 3019 3021 3024 3027 3028 3030 3032 3032 3033 3036 3037 3039 3040 3040 3041 3043 3046 3047 3047 3047 3047 3047 3047 3047 3049 3050 3048 3046 3049 3051 3049 3045 3044 3045 3045 3045 3044 3044 3045 3045 3044 3043 3042 3041
2874 2876 2878 2879 2883 2888 2892 2896 2900 2904 2907 2910 2913 2916 2919 2921 2923 2926 2929 2934 2939 2942 2944 2949 2954 2959 2963 2967 2970 2973 2976 2980 2983 2987 2990 2993 2997 2999 3002 3004 3006 3009 3012 3015 3017 3019 3023 3025 3026 3028 3030 3030 3031 3033 3035 3037 3037 3034 3036 3039 3040 3041 3041 3040 3040 3042 3043 3044 3044 3042 3040 3042 3045 3048 3047 3044 3040 3038 3039 3039 3039 3040 3041 3041 3039 3039 3039 3037